Regional Weather Roundup
Issued by NWS Little Rock, AR

Home | Current Version | Previous Version | Text Only | Print | Product List | Glossary Off
Versions: 1 2 3 4 5 6 7 8 9 10 11 12 13 14 15 16 17 18 19 20 21 22 23 24 25 26 27 28

000
ASUS44 KLZK 282305
RWRLZK

WEATHER ROUNDUP FOR ARKANSAS
NATIONAL WEATHER SERVICE LITTLE ROCK AR
600 PM CDT THU APR 28 2016

NOTE: "FAIR" INDICATES FEW OR NO CLOUDS BELOW 12,000 FEET WITH NO
SIGNIFICANT WEATHER AND/OR OBSTRUCTIONS TO VISIBILITY.

ARZ001-003-010-029-290000-
NORTHWEST ARKANSAS

CITY           SKY/WX    TMP DP  RH WIND       PRES   REMARKS
FAYETTEVILLE   SUNNY     75  46  35 NE6       29.95R
FORT SMITH     SUNNY     80  46  30 E8        29.90F
HARRISON       SUNNY     76  43  30 NW5       29.96R
BENTONVILLE    SUNNY     73  45  35 NW5       29.97S
ROGERS         SUNNY     73  46  38 NE6       29.97S
SILOAM SPGS    SUNNY     73  48  40 NE6       29.96S
HIGHFILL       SUNNY     75  50  41 N5        29.95S
SPRINGDALE     SUNNY     75  46  35 E3        29.97S
$$

ARZ004-005-016-290000-
NORTH CENTRAL ARKANSAS

CITY           SKY/WX    TMP DP  RH WIND       PRES   REMARKS
BATESVILLE     SUNNY     82  45  26 E5        29.93S
FLIPPIN        SUNNY    N/A N/A N/A N7        29.92R
MTN HOME       SUNNY     77  41  27 CALM      29.94S
$$

ARZ040-041-290000-
WEST CENTRAL ARKANSAS

CITY           SKY/WX    TMP DP  RH WIND       PRES   REMARKS
MENA           SUNNY     82  48  30 SE5       29.92R
MOUNT IDA      SUNNY     82  53  36 SE6       29.89S
$$

ARZ009-017-025-026-028-290000-
NORTHEAST ARKANSAS

CITY           SKY/WX    TMP DP  RH WIND       PRES   REMARKS
CORNING        LGT RAIN  81  46  30 W8        29.93S
JONESBORO      SUNNY     81  44  27 W7        29.92S
NEWPORT        SUNNY     81  47  30 NE3       29.93F
WALNUT RIDGE   SUNNY     81  46  30 W6        29.93S
BLYTHEVILLE    SUNNY     82  43  25 W9        29.93R
$$

ARZ022-023-033-042-044-290000-
CENTRAL ARKANSAS

CITY           SKY/WX    TMP DP  RH WIND       PRES   REMARKS
LITTLE ROCK    MOSUNNY   83  50  31 E7        29.91S
N LITTLE ROCK    N/A     81  47  30 SE6       29.90S
JACKSONVILLE   SUNNY     82  54  38 NE5       29.91S
SEARCY         SUNNY     81  53  37 SE5       29.94S
HOT SPRINGS    SUNNY     83  50  31 SE6       29.91S
RUSSELLVILLE   SUNNY     82  44  26 E7        29.91R
$$

ARZ036-290000-
EAST ARKANSAS

CITY           SKY/WX    TMP DP  RH WIND       PRES   REMARKS
WEST MEMPHIS   SUNNY     82  50  32 CALM      29.92R
$$

ARZ050-053-066-070-073-290000-
SOUTHWEST ARKANSAS

CITY           SKY/WX    TMP DP  RH WIND       PRES   REMARKS
ARKADELPHIA    FAIR      85  58  39 CALM      29.90S
CAMDEN         SUNNY     84  50  30 SE3       29.89R
TEXARKANA      SUNNY     82  54  37 E5        29.87F
EL DORADO      SUNNY     84  56  38 E7        29.89S
DE QUEEN       SUNNY     81  55  40 SE6       29.87S
$$

ARZ056-057-069-290000-
SOUTHEAST ARKANSAS

CITY           SKY/WX    TMP DP  RH WIND       PRES   REMARKS
PINE BLUFF     SUNNY     83  48  29 E7        29.91R
STUTTGART      SUNNY     82  50  32 MISG      29.92S
MONTICELLO     SUNNY     85  55  35 E7        29.90R

$$






USA.gov is the U.S. government's official web portal to all federal, state and local government web resources and services.